Location: Caltech
(34.1382°N, 118.1253°W)
Time: 11:24:45
(UTC-07:00)

FO-29 - Visible Passes

Search period start: 19 August 2017 00:00
Search period end: 29 August 2017 00:00
Orbit: 800 x 1321 km, 98.6° (Epoch: 19 August)

Date Brightness Start Highest point End Pass type
(mag) Time Alt. Az. Time Alt. Az. Time Alt. Az.
19 Aug 10.0 22:26:32 10° N 22:30:17 44° N 22:30:17 44° N visible
20 Aug 10.8 21:32:11 10° NE 21:34:21 20° NE 21:34:21 20° NE visible
20 Aug 11.0 23:17:15 10° N 23:20:48 26° NW 23:20:48 26° NW visible
21 Aug 10.2 22:21:33 10° NNE 22:24:53 38° NNE 22:24:53 38° NNE visible
22 Aug 10.9 21:27:19 10° NE 21:28:57 17° NE 21:28:57 17° NE visible
22 Aug 11.0 23:12:10 10° N 23:15:25 26° NW 23:15:25 26° NW visible
23 Aug 10.4 22:16:33 10° NNE 22:19:28 33° NNE 22:19:28 33° NNE visible
24 Aug 11.1 21:22:29 10° NE 21:23:32 14° NE 21:23:32 14° NE visible
24 Aug 11.0 23:07:05 10° N 23:10:00 26° NW 23:10:00 26° NW visible
25 Aug 10.6 22:11:33 10° NNE 22:14:04 28° NNE 22:14:04 28° NNE visible
26 Aug 12.0 00:00:14 10° NW 00:00:32 10° NW 00:00:32 10° NW visible
26 Aug 11.2 21:17:38 10° NE 21:18:07 12° NE 21:18:07 12° NE visible
26 Aug 11.1 23:01:59 10° N 23:04:35 25° NNW 23:04:35 25° NNW visible
27 Aug 10.8 22:06:33 10° NNE 22:08:39 24° NNE 22:08:39 24° NNE visible
27 Aug 12.0 23:54:32 10° NW 23:55:07 11° NW 23:55:07 11° NW visible
28 Aug 11.1 22:56:53 10° N 22:59:10 24° NNW 22:59:10 24° NNW visible
